Weather History for KBVE - July, 2013

Change the Weather History Date:

Tuesday, July 23, 2013

  Actual Average Record
Temperature  
Mean Temperature 84 °F -  
Max Temperature 87 °F - - ()
Min Temperature 82 °F - - ()
Cooling Degree Days 20    
Growing Degree Days 34 (Base 50)    
Moisture  
Dew Point 76 °F    
Average Humidity 77    
Maximum Humidity 88    
Minimum Humidity 67    
Precipitation  
Precipitation 0.00 in - - ()
Sea Level Pressure  
Sea Level Pressure 30.03 in    
Wind  
Wind Speed 11 mph (WSW)    
Max Wind Speed 17 mph    
Max Gust Speed 24 mph    
Visibility 10 miles    
Events      
T = Trace of Precipitation, MM = Missing Value Source: NWS Daily Summary

Daily Weather History Graph

Daily Weather History Graph

Search for Another Location

Airport or City:

Trip Planner

Search our weather history database for the weather conditions in past years. The results will help you decide how hot, cold, wet, or windy it might be!

Date:

Astronomy

Jul. 23, 2013 Rise Set
Actual Time 6:12 AM CDT 7:55 PM CDT
Civil Twilight 5:46 AM CDT 8:21 PM CDT
Nautical Twilight 5:15 AM CDT 8:52 PM CDT
Astronomical Twilight 4:41 AM CDT 9:25 PM CDT
Moon 8:35 PM CDT (7/23) 7:11 AM CDT (7/23)
Length of Visible Light 14h 34m
Length of Day
13h 42m
Full, 99% of the Moon is Illuminated
Jul 23
Full
Jul 29
Last Quarter
Aug 6
New
Aug 14
First Quarter
Aug 20
Full

Hourly Weather History & Observations

Time (CDT) Temp. Heat Index Dew Point Humidity Pressure Visibility Wind Dir Wind Speed Gust Speed Precip Events Conditions
12:51 AM 82.9 °F 92.8 °F 78.1 °F 85% 30.05 in 10.0 mi SW 9.2 mph - N/A   Clear
1:51 AM 82.0 °F 91.0 °F 78.1 °F 88% 30.03 in 10.0 mi SW 10.4 mph - N/A   Clear
2:51 AM 82.0 °F 91.0 °F 78.1 °F 88% 30.03 in 10.0 mi SW 10.4 mph - N/A   Scattered Clouds
3:51 AM 82.0 °F 91.0 °F 78.1 °F 88% 30.04 in 10.0 mi SW 11.5 mph - N/A   Partly Cloudy
4:51 AM 82.0 °F 90.2 °F 77.0 °F 85% 30.05 in 10.0 mi WSW 8.1 mph - N/A   Mostly Cloudy
5:51 AM 82.0 °F 90.2 °F 77.0 °F 85% 30.05 in 10.0 mi WSW 8.1 mph - N/A   Mostly Cloudy
6:02 AM 82.4 °F 90.9 °F 77.0 °F 84% 30.05 in 10.0 mi WSW 8.1 mph - N/A   Mostly Cloudy
6:44 AM 82.4 °F 89.5 °F 75.2 °F 79% 30.06 in 10.0 mi WSW 8.1 mph - N/A   Mostly Cloudy
6:51 AM 82.0 °F 89.4 °F 75.9 °F 82% 30.06 in 10.0 mi WSW 9.2 mph - N/A   Mostly Cloudy
7:51 AM 82.9 °F 91.8 °F 77.0 °F 82% 30.06 in 10.0 mi WSW 9.2 mph - N/A   Clear
8:51 AM 84.9 °F 95.3 °F 77.0 °F 77% 30.08 in 10.0 mi WSW 10.4 mph - N/A   Clear
9:51 AM 84.9 °F 94.1 °F 75.9 °F 74% 30.08 in 10.0 mi WSW 15.0 mph 19.6 mph N/A   Clear
10:51 AM 84.9 °F 94.1 °F 75.9 °F 74% 30.09 in 10.0 mi WSW 13.8 mph 19.6 mph N/A   Partly Cloudy
11:51 AM 87.1 °F 97.3 °F 75.9 °F 69% 30.08 in 10.0 mi WSW 13.8 mph - N/A   Partly Cloudy
12:51 PM 87.1 °F 97.3 °F 75.9 °F 69% 30.07 in 10.0 mi WSW 15.0 mph 20.7 mph N/A   Clear
1:51 PM 87.1 °F 97.3 °F 75.9 °F 69% 30.05 in 10.0 mi SW 16.1 mph - N/A   Partly Cloudy
2:51 PM 87.1 °F 96.3 °F 75.0 °F 67% 30.03 in 10.0 mi WSW 17.3 mph 23.0 mph N/A   Clear
3:51 PM 87.1 °F 96.3 °F 75.0 °F 67% 30.01 in 10.0 mi WSW 13.8 mph 24.2 mph N/A   Clear
4:51 PM 87.1 °F 96.3 °F 75.0 °F 67% 30.00 in 10.0 mi WSW 15.0 mph 21.9 mph N/A   Clear
5:51 PM 86.0 °F 95.1 °F 75.0 °F 70% 29.99 in 10.0 mi WSW 13.8 mph - N/A   Clear
6:51 PM 84.9 °F 94.1 °F 75.9 °F 74% 29.98 in 10.0 mi WSW 15.0 mph 20.7 mph N/A   Clear
7:51 PM 84.0 °F 92.6 °F 75.9 °F 76% 29.96 in 10.0 mi WSW 12.7 mph 21.9 mph N/A   Clear
8:51 PM 82.9 °F 90.8 °F 75.9 °F 79% 29.98 in 10.0 mi WSW 12.7 mph 19.6 mph N/A   Clear
9:51 PM 82.9 °F 90.2 °F 75.0 °F 77% 29.98 in 10.0 mi WSW 11.5 mph - N/A   Clear
10:51 PM 82.9 °F 90.8 °F 75.9 °F 79% 30.00 in 10.0 mi WSW 10.4 mph - N/A   Partly Cloudy
11:51 PM 82.9 °F 90.2 °F 75.0 °F 77% 29.99 in 10.0 mi WSW 12.7 mph - N/A   Scattered Clouds